Location: Bothwell
(41.7170°N, 112.2589°W)
Time: 13:54:53
(UTC+00:00)

Vanguard 2 - Pass Details

Date: 10 May 2026
Orbit: 553 x 2894 km, 32.9° (Epoch: 8 June)

Event Time Altitude Azimuth Distance (km) Brightness Sun altitude
Rises 09:17:27 0° 216° (SW) 6,604 - -25.2°
Reaches altitude 10° 09:22:22 10° 208° (SSW) 5,682 - -24.7°
Exits shadow 09:30:03 26° 188° (S) 4,437 10.8 -24.0°
Maximum altitude 09:37:09 35° 151° (SSE) 3,811 10.8 -23.3°
Drops below altitude 10° 09:49:34 10° 93° (E) 4,811 12.0 -21.9°
Sets 09:53:16 0° 85° (E) 5,522 12.5 -21.5°
